Regional Weather Roundup
Issued by NWS

Home | Current Version | Previous Version | Text Only | Print | Product List | Glossary On
Versions: 1 2 3 4 5 6 7 8 9 10 11 12 13 14 15 16 17 18 19 20 21 22 23 24 25 26 27 28 29 30 31 32 33 34 35 36 37 38 39 40 41 42 43 44 45 46 47 48 49 50
000
ASUS44 KJAN 041503
RWRMS

MISSISSIPPI HOURLY WEATHER ROUNDUP
NATIONAL WEATHER SERVICE JACKSON MS
1000 AM CDT MON MAY 04 2015

NOTE: "FAIR: INDICATES FEW OR NO CLOUDS BELOW 12,000 FEET WITH NO
SIGNIFICANT WEATHER AND/OR OBSTRUCTIONS TO VISIBILITY.

MSZ001>002-007>008-010>013-018>021-025>028-034>036-041600-
NORTHWEST MISSISSIPPI

CITY           SKY/WX    TMP DP  RH WIND       PRES   REMARKS
CLARKSDALE     FAIR     N/A N/A N/A S7        30.23R
CLEVELAND      FAIR      74  62  67 S7        30.23R
GREENWOOD      SUNNY     74  58  57 S5        30.24R
GREENVILLE     SUNNY     73  60  63 S5        30.22R
OLIVE BRANCH   MOSUNNY   73  63  68 SW8       30.23R
OXFORD         LGT RAIN  72  55  56 SW6       30.26S
TUNICA         SUNNY     73  61  64 S9        30.23R
$$

MSZ003>006-009-014>017-022>024-029>033-037>039-041600-
NORTHEAST MISSISSIPPI

CITY           SKY/WX    TMP DP  RH WIND       PRES   REMARKS
COLUMBUS AFB   NOT AVBL
CORINTH        FAIR      75  55  50 SW9       30.25R
GOLDN TRIANGLE MOSUNNY   72  57  60 S3        30.27R
STARKVILLE     FAIR      72  61  68 SE3       30.26S
TUPELO         SUNNY     74  52  46 VRB7      30.26R
$$

MSZ040-058-041600-
CENTRAL MISSISSIPPI

CITY           SKY/WX    TMP DP  RH WIND       PRES   REMARKS
JACKSON INTL   PTSUNNY   72  62  71 CALM      30.23R
JACKSON HAWKNS PTSUNNY   72  61  68 SE5       30.24R
MERIDIAN KEY   MOSUNNY   74  61  63 S3        30.24S
MERIDIAN NAS   SUNNY     75  60  59 E5        30.25F
RAYMOND        FAIR      75  70  83 SE6       30.23R
VICKSBURG      SUNNY     74  60  61 SE5       30.22R
$$

MSZ059>079-041600-
SOUTH MISSISSIPPI

CITY           SKY/WX    TMP DP  RH WIND       PRES   REMARKS
BROOKHAVEN     FAIR      72  66  83 NE5       30.24R
HATTIESBURG    SUNNY     74  63  68 E8        30.23R
MCCOMB         CLOUDY    73  65  75 NE7       30.21R
NATCHEZ        MOSUNNY   73  57  56 CALM      30.21S
PINE BELT      SUNNY     73  64  73 E8        30.24R
$$

MSZ080>082-041600-
COASTAL MISSISSIPPI

CITY           SKY/WX    TMP DP  RH WIND       PRES   REMARKS
BAY ST LOUIS   MOSUNNY   77  61  57 MISG      30.19R
BILOXI         NOT AVBL
PASCAGOULA     PTSUNNY   78  63  59 SE16G23   30.21S
GULFPORT       MOSUNNY   78  63  59 E21       30.19S
$$



USA.gov is the U.S. government's official web portal to all federal, state and local government web resources and services.